Regional Weather Roundup
Issued by NWS

Home | Current Version | Previous Version | Graphics & Text | Print | Product List | Glossary On
Versions: 1 2 3 4 5 6 7 8 9 10 11 12 13 14 15 16 17 18 19 20 21 22 23 24 25 26 27 28 29 30 31 32 33 34 35 36 37 38 39 40 41 42 43 44 45 46 47 48 49 50
349
ASUS43 KLSX 232110
RWRMO

WEATHER SUMMARY FOR MISSOURI
NATIONAL WEATHER SERVICE SPRINGFIELD MO
400 PM CDT MON APR 23 2018

NOTE: "FAIR" INDICATES FEW OR NO CLOUDS BELOW 12,000 FEET WITH NO
       SIGNIFICANT WEATHER AND/OR OBSTRUCTIONS TO VISIBILITY.
       CURRENT SKY AND/OR WEATHER CONDITIONS ARE NOT AVAILABLE FOR
       CHILLICOTHE AND FARMINGTON.

MOZ001>031-035>038-043-044-053-054-232200-
...NORTHERN AND WESTERN MISSOURI...

CITY           SKY/WX    TMP DP  RH WIND       PRES   REMARKS
KANSAS CTY INT MOSUNNY   75  31  19 NE12G21   30.03F
KANSAS C DTWN  SUNNY     76  32  20 N9        30.01F
LEE`S SUMMIT   SUNNY     75  33  21 E12       30.01F
ST JOSEPH      SUNNY     76  31  19 NE14G22   30.04F
CHILLICOTHE      N/A     75  29  18 NE13G24   30.03F
KIRKSVILLE     MOSUNNY   68  34  28 N15G22    30.04F

$$
MOZ066>068-077>081-088>096-101>105-232200-
...SOUTHWEST MISSOURI...

CITY           SKY/WX    TMP DP  RH WIND       PRES   REMARKS
SPRINGFIELD    CLOUDY    67  45  45 N14G23    29.95F
JOPLIN         MOSUNNY   71  46  40 N15       29.99F
BRANSON        CLOUDY    64  46  52 NW15G21   29.95S

$$
MOZ032>034-039>042-045>050-055>058-069>072-232200-
...CENTRAL MISSOURI...

CITY           SKY/WX    TMP DP  RH WIND       PRES   REMARKS
COLUMBIA       MOSUNNY   72  42  34 NE21G29   29.96F
JEFFERSON CITY CLOUDY    70  45  40 E10G20    29.95F
ROLLA          PTSUNNY   61  52  72 NE16      29.97F
SEDALIA        CLOUDY    70  38  31 N16       30.00F
WHITEMAN AFB   PTSUNNY   69  34  27 NE17G24   29.97S
WARRENSBURG    MOSUNNY   73  30  20 NE13G22   30.00F
OSAGE BEACH    CLOUDY    67  48  50 NE13      29.96S

$$
MOZ051-052-059>065-232200-
...EAST CENTRAL MISSOURI...

CITY           SKY/WX    TMP DP  RH WIND       PRES   REMARKS
ST LOUIS INTL  CLOUDY    59  54  83 NE12      29.97F
SPIRIT OF STL  CLOUDY    60  55  83 NE9       29.96F
ST CHARLES     CLOUDY    61  55  81 NE13      29.97F

$$
MOZ072>076-082>087-097>100-106>115-232200-
...SOUTH CENTRAL AND SOUTHEAST MISSOURI...

CITY           SKY/WX    TMP DP  RH WIND       PRES   REMARKS
CAPE GIRARDEAU PTSUNNY   67  58  72 S5        29.87S
FARMINGTON     CLOUDY    59  55  87 N6        29.92F
POPLAR BLUFF   PTSUNNY   60  55  83 SE6       29.87F
WEST PLAINS    CLOUDY    59  52  77 N12G24    29.92F

$$




USA.gov is the U.S. government's official web portal to all federal, state and local government web resources and services.